[[{"header":{"parameterUnit":"m.s-1","parameterCategory":1,"la1":30.2991,"la2":30.254,"lo1":-89.0895,"lo2":-89.0444,"dy":0.0017,"dx":0.0017,"nx":28,"ny":28,"refTime":"2026-01-07T03:00:00:Z","depth":0,"parameterNumber":2,"parameterNumberName":"U-component_of_WINDS"},"data":[0,0,0,0,0,0,0,0,0,0,0,0,0,0,0,0,0,0,0,0,0,0,0,0,0,0,0,0,0,0,0,0,0,0,0,0,0,0,0,0,0,0,0,0,0,0,0,0,0,0,0,0,0,0,0,0,0,0,2.5872,2.5874,0,2.6073,2.6076,2.6078,2.608,2.6077,2.6074,2.6072,2.6288,2.6296,2.6304,0,0,0,0,0,0,0,0,0,0,0,0,0,2.5499,2.5506,2.5872,2.5874,2.5877,2.6073,2.6076,2.6078,2.608,2.6077,2.6074,2.6071,2.6286,2.6295,2.6305,0,0,0,0,0,0,0,0,0,0,0,0,0,2.5677,2.5508,2.5871,2.5901,2.5906,2.6072,2.6076,2.6079,2.6081,2.6077,2.6073,2.6069,2.6283,2.6294,2.6307,2.646,0,0,2.6344,2.6349,0,0,0,0,0,0,0,0,2.5667,2.5691,2.5894,2.5899,2.5905,2.6047,2.6024,2.6207,2.6082,2.6015,2.6072,2.6067,2.6212,2.623,2.6276,2.647,2.648,2.6345,2.6353,2.6358,2.6361,0,0,0,0,0,0,0,2.5655,2.5682,2.5952,2.5897,2.5904,2.5908,2.5929,2.6058,2.6133,2.602,2.6021,2.6044,2.6214,2.6265,2.6282,2.6483,2.6345,2.6356,2.6363,2.6368,2.6816,2.6821,0,0,0,0,0,0,2.5635,2.5672,2.5945,2.5958,2.5773,2.5918,2.5941,2.6006,2.6131,2.6147,2.6047,2.6043,2.6246,2.6267,2.6289,2.6479,2.6358,2.6369,2.6376,2.6812,2.6817,2.6822,0,0,0,0,0,0,2.5627,2.5659,2.5937,2.5815,2.5851,2.5928,2.6001,2.6012,2.6062,2.6152,2.6166,2.6084,2.6243,2.6272,2.6418,2.6487,2.6375,2.6386,2.6807,2.6814,2.682,2.6859,0,0,0,0,0,0,2.5616,2.5656,2.5713,2.5816,2.5857,2.6059,2.6005,2.6018,2.6082,2.6079,2.619,2.6205,2.6242,2.6399,2.643,2.6502,2.6396,2.6801,2.681,2.6818,2.6852,2.6867,2.6879,0,0,0,0,0,2.5603,2.5718,2.5716,2.5749,2.5929,2.6063,2.6087,2.6124,2.6087,2.6147,2.6205,2.6202,2.6474,2.6414,2.6449,2.6525,2.6797,2.6807,2.6817,2.6846,2.6864,2.6879,0,0,0,0,0,0,2.5623,2.5732,2.5731,2.5881,2.5963,2.6063,2.6139,2.6141,2.6237,2.6231,2.6277,2.6302,2.6448,2.6501,2.6433,2.6682,2.6631,2.6649,2.6642,2.6659,2.6672,2.6657,2.6406,0,0,0,0,0,2.5645,2.5741,2.5832,2.5957,2.5997,2.6061,2.6121,2.6142,2.623,2.6265,2.6334,2.6422,2.6527,2.6596,2.6698,2.686,2.6886,2.693,2.6943,2.6953,2.6969,2.7061,2.7082,2.6856,2.6856,2.6856,0,0,2.5692,2.5763,2.5821,2.5963,2.6028,2.6131,2.609,2.62,2.6277,2.6283,2.6424,2.6478,2.658,2.6734,2.6806,2.6783,2.7037,2.6967,2.6974,2.6984,2.7074,2.7095,2.7114,2.6863,2.6862,2.6861,0,0,2.5829,2.5891,2.6002,2.6068,2.6167,2.6209,2.6236,2.6336,2.6371,2.6513,2.652,2.6615,2.6795,2.6867,2.6928,2.7094,2.7096,2.7126,2.7197,2.7286,2.7304,2.732,2.7382,2.7403,2.7141,2.7141,2.7141,0,2.5875,2.6026,2.606,2.617,2.6234,2.624,2.6356,2.642,2.6548,2.6594,2.6565,2.6792,2.6861,2.7034,2.7074,2.7122,2.7158,2.7114,2.7298,2.7315,2.733,2.739,2.7413,2.7144,2.7144,2.7143,2.7143,0,2.608,2.6185,2.6264,2.6384,2.6456,2.6569,2.6623,2.6693,2.6709,2.6755,2.6902,2.6984,2.7104,2.7146,2.7164,2.7323,2.7306,2.7287,2.7238,2.7354,2.7411,2.7434,2.7149,2.7147,2.7147,2.7146,0,0,2.6236,2.6373,2.6402,2.6458,2.6567,2.6651,2.6766,2.6879,2.694,2.7029,2.7128,2.7281,2.7264,2.7333,2.7359,2.7438,2.7567,2.741,2.7413,2.7438,2.7751,2.7765,2.7791,2.7568,2.7573,2.7576,2.7743,0,2.6386,2.6585,2.662,2.6795,2.6895,2.6903,2.7004,2.7084,2.7131,2.7225,2.7278,2.7386,2.7355,2.7396,2.7474,2.7535,2.7631,2.7523,2.7665,2.767,2.764,2.782,2.7835,2.7988,2.7765,2.7769,2.7772,0,2.6588,2.6679,2.6863,2.6961,2.7005,2.7093,2.7202,2.729,2.7383,2.7412,2.7489,2.7506,2.7629,2.7573,2.7745,2.7671,2.7732,2.777,2.7777,2.7794,2.7729,2.7843,2.8038,2.8062,2.7807,2.7804,2.7802,0,2.6685,2.6854,2.6987,2.7034,2.7152,2.7214,2.7267,2.7355,2.7422,2.7518,2.7563,2.7673,2.7735,2.7821,2.787,2.7824,2.804,2.7987,2.8071,2.807,2.8117,2.8113,2.8326,2.8153,2.8153,2.8152,2.8152,0,2.685,2.6963,2.7032,2.7114,2.7243,2.7283,2.7411,2.7463,2.7542,2.7637,2.7652,2.7742,2.78,2.7899,2.7938,2.8077,2.8104,2.8134,2.8143,2.8133,2.813,2.8174,2.8166,2.8158,2.8157,2.8156,2.8155,0,2.6981,2.7031,2.7177,2.7275,2.7303,2.7394,2.748,2.7562,2.7608,2.7729,2.776,2.7834,2.7952,2.8008,2.8155,2.8182,2.834,2.8341,2.8307,2.8311,2.8392,2.8385,2.8643,2.868,2.848,2.8482,2.8483,0,2.7083,2.717,2.7278,2.7341,2.7394,2.7496,2.7564,2.7608,2.7679,2.7792,2.7862,2.7979,2.8076,2.8265,2.8334,2.8448,2.8454,2.8536,2.8471,2.8459,2.8458,2.8452,2.8463,2.8548,2.855,2.8552,2.8553,0,2.726,2.7281,2.7376,2.7482,2.7561,2.7647,2.7732,2.7784,2.7842,2.7922,2.8041,2.8116,2.8265,2.8383,2.8501,2.856,2.8569,2.8573,2.8599,2.859,2.8567,2.8583,2.8341,2.8567,2.8566,2.8565,2.8564,2.8563,2.7381,2.746,2.7548,2.7654,2.7722,2.7801,2.7883,2.7939,2.8038,2.8161,2.8182,2.831,2.8404,2.8563,2.8625,2.8729,2.871,2.8747,2.8757,2.8766,2.8771,2.8549,2.875,2.875,2.875,2.8749,2.8749,0,2.7561,2.7618,2.7715,2.7832,2.7917,2.7913,2.8007,2.808,2.819,2.8276,2.837,2.8508,2.8623,2.8702,2.882,2.8888,2.8895,2.8917,2.8914,2.8928,2.8779,2.8746,2.891,2.891,2.891,2.891,2.8909,2.8909,2.7664,2.7797,2.7829,2.7997,2.8055,2.8177,2.8231,2.8306,2.8374,2.8526,2.8621,2.867,2.8755,2.8879,2.8986,2.9006,2.905,2.9073,2.9094,2.8955,2.8938,2.8922,2.8891,2.9082,2.9082,2.9234,2.9235,2.9237]},{"header":{"parameterUnit":"m.s-1","parameterCategory":1,"la1":30.2991,"la2":30.254,"lo1":-89.0895,"lo2":-89.0444,"dy":0.0017,"dx":0.0017,"nx":28,"ny":28,"refTime":"2026-01-07T03:00:00:Z","depth":0,"parameterNumber":3,"parameterNumberName":"V-component_of_WINDS"},"data":[0,0,0,0,0,0,0,0,0,0,0,0,0,0,0,0,0,0,0,0,0,0,0,0,0,0,0,0,0,0,0,0,0,0,0,0,0,0,0,0,0,0,0,0,0,0,0,0,0,0,0,0,0,0,0,0,0,0,2.4986,2.4988,0,2.5132,2.5133,2.5135,2.5136,2.5134,2.5133,2.5131,2.5282,2.5288,2.5294,0,0,0,0,0,0,0,0,0,0,0,0,0,2.4711,2.4716,2.4986,2.4988,2.499,2.5131,2.5133,2.5135,2.5137,2.5134,2.5132,2.513,2.5281,2.5287,2.5294,0,0,0,0,0,0,0,0,0,0,0,0,0,2.4841,2.4718,2.4986,2.5007,2.501,2.5131,2.5134,2.5136,2.5137,2.5134,2.5131,2.5129,2.5278,2.5287,2.5295,2.5405,0,0,2.5322,2.5325,0,0,0,0,0,0,0,0,2.4834,2.4851,2.5002,2.5006,2.501,2.5113,2.5092,2.5226,2.5138,2.5089,2.5131,2.5127,2.5228,2.5241,2.5275,2.5412,2.5418,2.5322,2.5328,2.5331,2.5334,0,0,0,0,0,0,0,2.4825,2.4845,2.5044,2.5004,2.5009,2.501,2.5026,2.5118,2.5173,2.5093,2.5094,2.5111,2.523,2.5266,2.5278,2.5421,2.5322,2.533,2.5335,2.5339,2.5657,2.566,0,0,0,0,0,0,2.4811,2.4837,2.5039,2.5048,2.4913,2.5018,2.5035,2.5083,2.5172,2.5183,2.5113,2.511,2.5253,2.5268,2.5284,2.5419,2.5331,2.534,2.5345,2.5654,2.5658,2.5661,0,0,0,0,0,0,2.4805,2.4829,2.5033,2.4943,2.4969,2.5025,2.5079,2.5087,2.5123,2.5187,2.5197,2.514,2.5251,2.5271,2.5375,2.5425,2.5343,2.5351,2.565,2.5655,2.566,2.5691,0,0,0,0,0,0,2.4797,2.4827,2.4868,2.4944,2.4974,2.5121,2.5082,2.5092,2.5138,2.5136,2.5214,2.5225,2.5251,2.5362,2.5384,2.5435,2.5358,2.5646,2.5652,2.5658,2.5686,2.5696,2.5705,0,0,0,0,0,2.4787,2.4871,2.487,2.4895,2.5027,2.5124,2.5141,2.5169,2.5142,2.5185,2.5226,2.5222,2.5415,2.5373,2.5397,2.5452,2.5643,2.565,2.5658,2.5681,2.5694,2.5705,0,0,0,0,0,0,2.4801,2.4882,2.4882,2.4992,2.5051,2.5124,2.5179,2.5181,2.525,2.5245,2.5276,2.5294,2.5398,2.5435,2.5386,2.5563,2.5526,2.5539,2.5536,2.5548,2.5558,2.5548,2.5365,0,0,0,0,0,2.4816,2.4888,2.4955,2.5046,2.5076,2.5122,2.5166,2.5182,2.5244,2.527,2.5318,2.538,2.5455,2.5503,2.5575,2.569,2.5709,2.574,2.575,2.5757,2.5769,2.5834,2.585,2.5685,2.5685,2.5685,0,0,2.485,2.4903,2.4946,2.505,2.5098,2.5173,2.5143,2.5223,2.5279,2.5282,2.5383,2.5421,2.5492,2.5602,2.5653,2.5636,2.5818,2.5767,2.5772,2.578,2.5843,2.5859,2.5873,2.569,2.569,2.5689,0,0,2.4949,2.4996,2.5078,2.5126,2.5199,2.5229,2.5249,2.5322,2.5347,2.5448,2.5453,2.552,2.5647,2.5699,2.5741,2.5861,2.5861,2.5883,2.5935,2.5999,2.6012,2.6023,2.6068,2.6084,2.5894,2.5894,2.5894,0,2.4982,2.5094,2.512,2.52,2.5247,2.5252,2.5336,2.5382,2.5474,2.5507,2.5486,2.5647,2.5696,2.5819,2.5848,2.5882,2.5907,2.5875,2.6007,2.6019,2.6031,2.6074,2.609,2.5896,2.5896,2.5896,2.5895,0,2.5132,2.5209,2.5267,2.5356,2.5409,2.549,2.553,2.558,2.5592,2.5625,2.5729,2.5787,2.5872,2.5902,2.5913,2.6028,2.6015,2.6,2.5964,2.6048,2.609,2.6106,2.59,2.5899,2.5898,2.5897,0,0,2.5244,2.5347,2.5368,2.5409,2.5489,2.5551,2.5633,2.5715,2.5759,2.5823,2.5894,2.6002,2.599,2.6038,2.6056,2.6111,2.6205,2.609,2.6092,2.6111,2.6336,2.6348,2.6367,2.6205,2.6208,2.621,2.6331,0,2.5354,2.55,2.5526,2.5655,2.5728,2.5734,2.5806,2.5864,2.5897,2.5965,2.6002,2.6079,2.6055,2.6085,2.614,2.6182,2.6251,2.6173,2.6273,2.6277,2.6257,2.6388,2.6401,2.6512,2.6347,2.635,2.6352,0,2.5501,2.5569,2.5704,2.5777,2.5808,2.5873,2.5951,2.6015,2.6081,2.6102,2.6156,2.6168,2.6255,2.6213,2.6335,2.6282,2.6324,2.6351,2.6356,2.6368,2.6321,2.6406,2.6548,2.6565,2.6377,2.6375,2.6373,0,2.5572,2.5697,2.5795,2.5829,2.5915,2.5961,2.5999,2.6062,2.6111,2.618,2.6212,2.629,2.6333,2.6394,2.6426,2.6392,2.6547,2.6507,2.6568,2.6568,2.6602,2.66,2.6755,2.6626,2.6625,2.6625,2.6625,0,2.5693,2.5776,2.5828,2.5888,2.5982,2.6012,2.6105,2.6142,2.6199,2.6267,2.6277,2.6342,2.638,2.6451,2.6477,2.6575,2.6594,2.6614,2.6621,2.6615,2.6613,2.6644,2.6638,2.663,2.6629,2.6628,2.6627,0,2.5789,2.5826,2.5934,2.6007,2.6027,2.6093,2.6156,2.6216,2.6248,2.6336,2.6358,2.641,2.6494,2.6532,2.6635,2.6653,2.6766,2.6765,2.6743,2.6746,2.6806,2.68,2.6988,2.7016,2.6866,2.6868,2.6869,0,2.5864,2.5929,2.6008,2.6055,2.6094,2.6169,2.6218,2.625,2.6302,2.6383,2.6433,2.6517,2.6586,2.6719,2.6767,2.6847,2.685,2.691,2.6862,2.6855,2.6854,2.685,2.6858,2.692,2.6921,2.6922,2.6923,0,2.5995,2.6011,2.6081,2.6159,2.6218,2.6281,2.6342,2.638,2.6422,2.6479,2.6565,2.6618,2.6724,2.6808,2.6891,2.6931,2.6936,2.6938,2.6957,2.6952,2.6938,2.6949,2.6769,2.6934,2.6933,2.6932,2.6931,2.6931,2.6084,2.6143,2.6208,2.6287,2.6337,2.6395,2.6455,2.6495,2.6567,2.6655,2.667,2.6761,2.6828,2.6939,2.6983,2.7056,2.7042,2.7068,2.7075,2.7082,2.7086,2.6924,2.7071,2.707,2.707,2.707,2.707,0,2.6217,2.626,2.6332,2.6418,2.6481,2.6478,2.6546,2.6599,2.668,2.6741,2.6808,2.6908,2.6989,2.7044,2.7127,2.7175,2.7179,2.7196,2.7194,2.7203,2.7093,2.707,2.7191,2.7191,2.7191,2.7191,2.7191,2.7191,2.6294,2.6393,2.6417,2.6541,2.6583,2.6673,2.6713,2.6767,2.6816,2.6926,2.6994,2.7028,2.7088,2.7175,2.725,2.7264,2.7296,2.7313,2.7327,2.7224,2.7211,2.7199,2.7177,2.7319,2.7319,2.7432,2.7433,2.7433]}]]